Regional Weather Roundup
Issued by NWS

Home | Current Version | Previous Version | Graphics & Text | Print | Product List | Glossary On
Versions: 1 2 3 4 5 6 7 8 9 10 11 12 13 14 15 16 17 18 19 20 21 22 23 24 25 26 27 28
000
ASUS45 KCYS 060710
RWRWY

WYOMING REGIONAL WEATHER ROUNDUP
NATIONAL WEATHER SERVICE CHEYENNE WY
100 AM MDT FRI MAY 06 2016

NOTE:  "FAIR" INDICATES FEW OR NO CLOUDS BELOW 12,000 FEET
WITH NO SIGNIFICANT WEATHER AND/OR OBSTRUCTIONS TO VISIBILITY.

WYZ001-060800-
YELLOWSTONE NATIONAL PARK

CITY           SKY/WX    TMP DP  RH WIND       PRES   REMARKS
LK YELLOWSTONE   N/A     37  30  75 W3        30.14S
W YELLOWSTONE  NOT AVBL

$$
WYZ002>013-054>058-071-098>099-060800-
NORTHERN WYOMING

CITY           SKY/WX    TMP DP  RH WIND       PRES   REMARKS
JACKSON        FAIR      55  34  44 N14       30.01S
CODY           FAIR      64  30  27 SW13      29.94S
GREYBULL       FAIR      60  31  33 MISG      29.88R
WORLAND        FAIR      59  40  49 W3        29.89R
SHERIDAN       FAIR      55  41  59 SW3       29.91R
BUFFALO        FAIR      63  32  31 W9        29.97S
GILLETTE       FAIR      50  42  74 S5        29.92F
HULETT         FAIR      55  43  62 S8        29.94S
NEWCASTLE      FAIR      61  32  33 CALM      29.95S

$$
WYZ014>020-022>026-101>103-060800-
CENTRAL WYOMING

CITY           SKY/WX    TMP DP  RH WIND       PRES   REMARKS
BIG PINEY      FAIR      39  27  62 NW6       30.04S WCI  35
PINEDALE       PTSUNNY   41  32  70 NW3       30.05S
DUBOIS         FAIR      50  32  50 NW5       30.08S
LANDER         FAIR      60  32  34 SW5       29.95S
RIVERTON       FAIR      56  40  55 CALM      29.97S
CASPER         FAIR      48  38  68 N3        29.98F
DOUGLAS        FAIR      52  40  63 CALM      29.98F

$$
WYZ021-027>030-104>119-060800-
SOUTHERN WYOMING

CITY           SKY/WX    TMP DP  RH WIND       PRES   REMARKS
EVANSTON       MOCLDY    55  35  47 E8        30.01F
KEMMERER         N/A     61  28  29 SE14G28   30.07R
FORT BRIDGER   CLOUDY    59  36  41 SW10      30.06S
ROCK SPRINGS   MOCLDY    55  29  36 S14       30.02R
DIXON          FAIR      54  30  41 E8        30.03S
RAWLINS        FAIR      48  32  53 NE3       30.05F
SARATOGA       FAIR      48  32  53 S15       30.07S
LARAMIE        FAIR      47  36  65 SW9       30.10F
CHEYENNE       FAIR      58  37  45 S8        30.07S
TORRINGTON     FAIR      52  43  71 E7        29.96S
PINE BLUFFS    FAIR      54  41  62 SW13      30.05R

$$




USA.gov is the U.S. government's official web portal to all federal, state and local government web resources and services.